This demonstration page uses our WeatherBlox Daily Observations layout. Learn more.

Left ArrowRight Arrow

Hourly Observations for May 18, 2021

Temp ( °F °C ) Dew Point ( °F °C ) Humidity (%) Winds ( mph kmh ) Pressure ( in mb ) Visibility ( mi km ) Precip ( " mm )
12:15 am 00:15 Cloudy 59 15 57 13.8 93 93 ESE 9 15 30.21 1023 10 16 0.00 0.00
12:35 am 00:35 Cloudy 59 15 57 13.7 92 92 ESE 7 11 30.21 1023 10 16 0.00 0.00
12:55 am 00:55 Cloudy 59 15 57 13.8 93 93 ESE 7 11 30.21 1023 10 16 0.00 0.00
1:15 am 01:15 Cloudy 59 15 57 13.7 92 92 ESE 7 11 30.21 1023 10 16 0.00 0.00
1:35 am 01:35 Cloudy 59 14.8 56 13.6 93 93 ESE 7 11 30.21 1023 10 16 0.00 0.00
1:55 am 01:55 Cloudy 59 14.8 56 13.6 93 93 ESE 6 9 30.21 1023 10 16 0.00 0.00
2:15 am 02:15 Cloudy 59 14.8 56 13.6 93 93 ESE 7 11 30.21 1023 10 16 0.00 0.00
2:35 am 02:35 Mostly Cloudy 58 14.7 56 13.6 93 93 ESE 6 9 30.21 1023 10 16 0.00 0.00
2:55 am 02:55 Clear 58 14.5 56 13.5 94 94 ESE 6 9 30.21 1023 10 16 0.00 0.00
3:15 am 03:15 Clear 58 14.5 56 13.5 94 94 E 6 9 30.21 1023 10 16 0.00 0.00
3:35 am 03:35 Clear 58 14.3 56 13.5 95 95 E 6 9 30.21 1023 10 16 0.00 0.00
3:55 am 03:55 Clear 57 14.1 56 13.3 95 95 E 5 7 30.21 1023 10 16 0.00 0.00
4:15 am 04:15 Clear 57 14 56 13.4 96 96 ESE 5 7 30.21 1023 7 11 0.00 0.00
4:35 am 04:35 Clear 57 14 56 13.2 95 95 ESE 5 7 30.22 1023 10 16 0.00 0.00
4:55 am 04:55 Clear 57 13.8 56 13.1 96 96 ESE 3 6 30.22 1023 10 16 0.00 0.00
5:15 am 05:15 Partly Cloudy 56 13.5 55 12.9 96 96 E 5 7 30.22 1023 7 11 0.00 0.00
5:35 am 05:35 Clear 56 13.5 55 13 97 97 ESE 5 7 30.23 1024 7 11 0.00 0.00
5:55 am 05:55 Mostly Cloudy 56 13.5 55 13 97 97 E 6 9 30.23 1024 7 11 0.00 0.00
6:15 am 06:15 Cloudy 56 13.5 55 13 97 97 ESE 6 9 30.24 1024 7 11 0.00 0.00
6:35 am 06:35 Cloudy 56 13.6 56 13.1 97 97 ESE 7 11 30.25 1024 7 11 0.00 0.00
6:55 am 06:55 Cloudy with Mist and Fog 57 13.7 56 13.2 97 97 SE 6 9 30.25 1024 5 8 0.00 0.00
7:15 am 07:15 Cloudy with Mist and Fog 57 14 56 13.3 96 96 E 7 11 30.24 1024 5 8 0.00 0.00
7:35 am 07:35 Cloudy with Mist and Fog 57 14 56 13.5 97 97 E 7 11 30.24 1024 5 8 0.00 0.00
7:55 am 07:55 Cloudy with Mist and Fog 57 14.1 56 13.5 96 96 ESE 8 13 30.26 1025 5 8 0.00 0.00
8:15 am 08:15 Cloudy with Mist and Fog 58 14.3 56 13.5 95 95 ESE 7 11 30.26 1025 5 8 0.00 0.00
8:35 am 08:35 Cloudy 58 14.7 57 13.8 94 94 ESE 7 11 30.25 1025 7 11 0.00 0.00
8:55 am 08:55 Cloudy with Mist and Fog 59 15.2 57 14 93 93 ESE 7 11 30.25 1024 5 8 0.00 0.00
9:15 am 09:15 Cloudy 60 15.5 57 14.1 91 91 ESE 6 9 30.25 1024 7 11 0.00 0.00
9:35 am 09:35 Cloudy 60 15.7 57 14 90 90 ESE 8 13 30.26 1025 10 16 0.00 0.00
9:55 am 09:55 Cloudy 61 16 57 14.1 89 89 ESE 8 13 30.26 1025 10 16 0.00 0.00
10:15 am 10:15 Cloudy 62 16.6 58 14.3 86 86 SE 9 15 30.26 1025 10 16 0.00 0.00
10:35 am 10:35 Cloudy 64 17.5 58 14.5 83 83 SE 12 19 30.25 1025 10 16 0.00 0.00
10:55 am 10:55 Cloudy 65 18.2 58 14.6 80 80 SE 12 19 30.26 1025 10 16 0.00 0.00
11:15 am 11:15 Cloudy 65 18.2 58 14.5 79 79 SE 10 17 30.26 1025 10 16 0.00 0.00
11:35 am 11:35 Cloudy 64 18 58 14.3 79 79 SE 13 20 30.26 1025 10 16 0.00 0.00
11:55 am 11:55 Cloudy 64 18 58 14.6 81 81 SSE 12 19 30.26 1025 10 16 0.00 0.00
12:15 pm 12:15 Cloudy with Drizzle 65 18.1 59 15 82 82 SE 10 17 30.26 1025 10 16 0.00 0.00
12:35 pm 12:35 Cloudy 65 18.5 59 15.1 81 81 SE 10 17 30.26 1025 10 16 0.00 0.00
12:55 pm 12:55 Mostly Cloudy 65 18.6 59 15.2 81 81 SE 10 17 30.26 1025 10 16 0.00 0.00
1:15 pm 13:15 Cloudy 66 19.1 59 15 77 77 SE 12 19 30.26 1025 10 16 0.00 0.00
1:35 pm 13:35 Cloudy with Light Rain 66 19.1 59 15.1 78 78 SE 13 20 30.26 1025 10 16 0.00 0.00
1:55 pm 13:55 Cloudy 68 19.8 60 15.4 76 76 SE 13 20 30.25 1024 10 16 0.00 0.00
2:15 pm 14:15 Mostly Cloudy 69 20.5 60 15.8 75 75 SE 14 22 30.23 1024 10 16 0.00 0.00
2:35 pm 14:35 Mostly Cloudy 70 21 61 15.9 73 73 SSE 17 28 30.23 1024 10 16 0.00 0.00
2:55 pm 14:55 Partly Cloudy 71 21.4 61 15.9 71 71 SE 15 24 30.22 1023 10 16 0.00 0.00
3:15 pm 15:15 Sunny 71 21.7 61 15.9 70 70 SE 12 19 30.22 1023 10 16 0.00 0.00
3:35 pm 15:35 Sunny 71 21.9 60 15.4 67 67 SE 12 19 30.21 1023 10 16 0.00 0.00
3:55 pm 15:55 Sunny 71 21.8 60 15.7 68 68 ESE 12 19 30.20 1023 10 16 0.00 0.00
4:15 pm 16:15 Sunny 73 22.5 60 15.8 66 66 SE 10 17 30.20 1023 10 16 0.00 0.00
4:35 pm 16:35 Partly Cloudy 73 22.5 61 15.9 66 66 SE 12 19 30.20 1023 10 16 0.00 0.00
4:55 pm 16:55 Partly Cloudy 72 22 59 15.1 65 65 SE 12 19 30.19 1022 10 16 0.00 0.00
5:15 pm 17:15 Mostly Cloudy 72 22 59 15.1 65 65 SSE 9 15 30.18 1022 10 16 0.00 0.00
5:35 pm 17:35 Cloudy 71 21.6 59 14.8 65 65 SE 12 19 30.18 1022 10 16 0.00 0.00
5:55 pm 17:55 Cloudy 70 20.9 60 15.3 70 70 SE 10 17 30.18 1022 10 16 0.00 0.00
6:15 pm 18:15 Cloudy 69 20.6 60 15.8 74 74 ESE 7 11 30.18 1022 10 16 0.00 0.00
6:35 pm 18:35 Mostly Cloudy 69 20.8 60 15.8 73 73 ESE 7 11 30.18 1022 10 16 0.00 0.00
6:55 pm 18:55 Mostly Cloudy 70 20.9 61 16 74 74 ESE 6 9 30.16 1021 10 16 0.00 0.00
7:15 pm 19:15 Partly Cloudy 70 21 61 16.2 74 74 E 6 9 30.16 1021 10 16 0.00 0.00
7:35 pm 19:35 Sunny 70 21 62 16.5 76 76 E 6 9 30.16 1021 10 16 0.00 0.00
7:55 pm 19:55 Partly Cloudy 70 21 61 16.3 75 75 E 5 7 30.16 1021 10 16 0.00 0.00
8:15 pm 20:15 Partly Cloudy 69 20.3 62 16.5 79 79 E 6 9 30.17 1022 10 16 0.00 0.00
8:35 pm 20:35 Mostly Cloudy 68 20 61 16.2 79 79 E 6 9 30.17 1022 10 16 0.00 0.00
8:55 pm 20:55 Partly Cloudy 67 19.3 61 16.2 82 82 E 5 7 30.17 1022 10 16 0.00 0.00
9:15 pm 21:15 Clear 66 19.1 61 15.9 82 82 E 6 9 30.17 1022 10 16 0.00 0.00
9:35 pm 21:35 Clear 67 19.5 60 15.4 77 77 ESE 7 11 30.18 1022 10 16 0.00 0.00
9:55 pm 21:55 Clear 67 19.2 59 15 77 77 ESE 7 11 30.19 1022 10 16 0.00 0.00
10:15 pm 22:15 Clear 66 19 59 14.8 77 77 ESE 7 11 30.19 1022 10 16 0.00 0.00
10:35 pm 22:35 Clear 66 19.1 58 14.6 75 75 ESE 7 11 30.19 1022 10 16 0.00 0.00
10:55 pm 22:55 Clear 66 18.7 58 14.6 77 77 SE 7 11 30.20 1023 10 16 0.00 0.00
11:15 pm 23:15 Clear 65 18.4 58 14.5 78 78 SE 7 11 30.20 1023 10 16 0.00 0.00
11:35 pm 23:35 Clear 65 18.4 58 14.5 78 78 SE 7 11 30.20 1023 10 16 0.00 0.00
11:55 pm 23:55 Clear 64 18 58 14.5 80 80 SE 7 11 30.20 1023 10 16 0.00 0.00

Powered by AerisWeather